Regional Weather Roundup
Issued by NWS San Angelo, TX

Home | Current Version | Previous Version | Text Only | Print | Product List | Glossary On
Versions: 1 2 3 4 5 6 7 8 9 10 11 12 13 14 15 16 17 18 19 20 21 22 23 24 25 26 27 28 29 30 31 32 33 34 35 36 37 38 39 40 41 42 43 44 45 46 47 48 49 50
000
ASUS44 KSJT 301111
RWRSJT
WEST CENTRAL TEXAS REGIONAL WEATHER ROUNDUP
NATIONAL WEATHER SERVICE SAN ANGELO TX
600 AM CDT SAT JUL 30 2016

NOTE: "FAIR" INDICATES FEW OR NO CLOUDS BELOW 12,000 FEET WITH NO
SIGNIFICANT WEATHER AND/OR OBSTRUCTIONS TO VISIBILITY.

TXZ049-054-064>066-071>073-076>078-098-099-113-114-127-128-139-140-
154-155-168>170-301200
...LOCATIONS ACROSS WEST CENTRAL TEXAS...

CITY           SKY/WX    TMP DP  RH WIND       PRES   REMARKS
SAN ANGELO     CLOUDY    76  67  73 SW5       30.03S
ABILENE        PTCLDY    76  64  66 SW7       30.03R
DYESS AFB      PTCLDY    76  66  70 S6        30.01S
JUNCTION       CLEAR     76  69  79 CALM      30.04R
SWEETWATER     PTCLDY    75  65  70 S10       30.07S
BROWNWOOD      CLOUDY    73  66  78 CALM      30.03R
COLEMAN        CLOUDY    74  65  73 SW5       30.05R
SONORA         MOCLDY    72  68  88 CALM      30.10R
OZONA          FAIR      72  64  78 CALM      30.09R
BRADY          NOT AVBL
$$

TEXAS PANHANDLE/OKLAHOMA PANHANDLE

CITY           SKY/WX    TMP DP  RH WIND       PRES   REMARKS
AMARILLO       MOCLDY    70  57  63 NE12      30.08R
BORGER         CLOUDY    72  56  57 E7        30.05S
CANADIAN       PTCLDY    70  66  86 CALM      30.02F
DALHART        CLEAR     65  58  78 SW10      30.09F
DUMAS          CLOUDY    62  56  81 NW5       30.10R
GUYMON         NOT AVBL
HEREFORD       PTSUNNY   67  64  89 N5        30.09S
PAMPA          PTSUNNY   68  61  76 SE8       30.07F
PERRYTON       MOCLDY    67  63  86 S5        30.05S
$$

SOUTHERN PANHANDLE/SOUTH PLAINS/ROLLING PLAINS

CITY           SKY/WX    TMP DP  RH WIND       PRES   REMARKS
LUBBOCK        CLOUDY    69  59  70 E7        30.06F
SNYDER           N/A     74  62  67 S6        30.06S
CHILDRESS      LGT RAIN  73  69  87 SE3       30.03R
SEMINOLE       SUNNY     73  63  70 CALM      30.10F
$$

PERMIAN BASIN

CITY           SKY/WX    TMP DP  RH WIND       PRES   REMARKS
MIDLAND        CLEAR     74  64  71 S6        30.07R
ODESSA         CLEAR     76  64  66 S7        30.08S
WINK           CLEAR     74  64  71 SE8       30.04S
$$

FAR WEST/SOUTHWEST MOUNTAINS/TRANS PECOS

CITY           SKY/WX    TMP DP  RH WIND       PRES   REMARKS
ALPINE         SUNNY     64  58  81 SW3       30.19S
DRYDEN           N/A     72  66  81 NE3       30.01S
EL PASO        MOCLDY    76  61  59 SE10      30.06S
FORT STOCKTON  CLEAR     71  62  73 SE3       30.07R
GUADALUPE PASS CLEAR     67  57  70 E6        30.19F
MARFA          CLEAR     58  57  97 NE6       30.17F
PECOS          SUNNY     72  62  70 E7        30.03S
$$

DALLAS/FORT WORTH METROPLEX

CITY           SKY/WX    TMP DP  RH WIND       PRES   REMARKS
DFW AIRPORT    PTCLDY    82  70  66 SW10      29.97R
FTW MEACHAM    CLEAR     80  70  71 S9        29.98R
DAL-EXECUTIVE  CLEAR     79  71  76 S7        29.97S
GRAND PRAIRIE  CLEAR     79  70  74 S8        29.99S
ADDISON        CLEAR     81  72  74 SW7       29.99S
MESQUITE       SUNNY     75  74  98 CALM      29.98R
LANCASTER      SUNNY     79  72  79 S5        29.99R
$$

NORTH CENTRAL TEXAS

CITY           SKY/WX    TMP DP  RH WIND       PRES   REMARKS
SHRMAN/DENISON SUNNY     78  73  86 S8        29.98R
GAINESVILLE    CLEAR     76  72  89 SE3       29.99S
BRIDGEPORT     SUNNY     77  69  77 S8        29.99S
DENTON         CLEAR     76  72  87 S6        29.96S
WAXAHACHIE     SUNNY     77  73  87 S5        30.00R
GRANBURY       SUNNY     80  69  69 E3        30.00R
$$

WESTERN NORTH TEXAS

CITY           SKY/WX    TMP DP  RH WIND       PRES   REMARKS
WICHITA FALLS  CLEAR     75  69  81 S9        29.95S
VERNON         MOSUNNY   77  65  65 NW3       29.99F
BRECKENRIDGE   SUNNY     78  65  65 SW8       30.00R
COMANCHE       CLEAR     76  68  77 S5        30.02S
$$

CENTRAL AND SOUTH CENTRAL TEXAS

CITY           SKY/WX    TMP DP  RH WIND       PRES   REMARKS
AUSTIN/BERGSTM PTCLDY    74  73  97 S3        30.01S
WACO           CLOUDY    79  72  79 S9        30.00R
HILLSBORO      SUNNY     78  71  80 S7        30.00S
TEMPLE         CLOUDY    76  73  91 S10       30.01S
KILLEEN-GRAY   CLOUDY    76  72  88 S9        30.01S
FORT HOOD      CLOUDY    76  72  87 VRB6      29.99S
GEORGETOWN     CLEAR     77  72  83 SW7       30.02S
LAGO VISTA     FAIR      77  73  88 S3        30.04S
SAN MARCOS     CLEAR     72  72 100 CALM      30.04S
NEW BRAUNFELS  CLEAR     74  73  97 SE3       30.00S
RANDOLPH AFB   PTCLDY    73  73 100 SE3       30.01S FOG
SAN ANTONIO    PTCLDY    77  74  90 S5        30.02S
STINSON        CLEAR     76  73  91 SE5       29.99S
PLEASANTON     NOT AVBL
LA GRANGE        N/A     76  76  98 CALM      30.00S FOG
GIDDINGS       SUNNY     75  73  96 CALM      30.05F
$$

EAST TEXAS

CITY           SKY/WX    TMP DP  RH WIND       PRES   REMARKS
PARIS          CLEAR     72  61  68 SE5       29.98S
CLARKSVILLE    NOT AVBL
TYLER          CLOUDY    80  72  76 SW10      30.00R
LONGVIEW       CLOUDY    76  73  91 CALM      29.99R
PALESTINE      CLOUDY    78  75  91 CALM      30.02R
NACOGDOCHES    CLOUDY   N/A N/A N/A W5        30.00R
$$

TEXAS HILL COUNTRY AND EDWARDS PLATEAU

CITY           SKY/WX    TMP DP  RH WIND       PRES   REMARKS
LLANO          MOSUNNY   79  75  89 CALM      30.05S
HORSESHOE BAY  FAIR      73  71  91 CALM      30.02S
KERRVILLE      MOCLDY    74  72  93 S6        30.05S
FREDERICKSBRG  CLEAR     72  68  88 CALM      30.06R
ROCKSPRINGS    MOSUNNY   72  70  94 S5        30.09S
HONDO          CLOUDY    75  74  96 CALM      30.04S
UVALDE         CLOUDY    71  68  90 CALM      30.03S
DEL RIO        CLOUDY    76  68  76 SE7       29.99S
$$

SOUTHEAST TEXAS

CITY           SKY/WX    TMP DP  RH WIND       PRES   REMARKS
COLLEGE STN    CLEAR     76  75  97 CALM      30.01S
CALDWELL       SUNNY     73  73 100 CALM      30.05R
CROCKETT       PTSUNNY   75  75 100 SW3       30.04S
BRENHAM        CLEAR     77  76  98 CALM      30.02S FOG
HUNTSVILLE     CLEAR     76  74  93 S3        30.02S
CONROE         CLEAR     74  73  97 CALM      30.01F
HOUSTON BUSH   PTCLDY    77  75  93 CALM      30.01S
HOUSTON HOBBY  PTCLDY    79  76  90 N3        30.00S
PERLAND        CLEAR     79  75  87 CALM      30.02S
WHARTON        NOT AVBL
$$

THE UPPER TEXAS COAST

CITY           SKY/WX    TMP DP  RH WIND       PRES   REMARKS
ORANGE         MOSUNNY   75  73  93 CALM      30.03R FOG
PORT ARTHUR    CLEAR     76  75  97 NW3       30.00R
GALVESTON      PTCLDY    81  77  88 SW3       30.01S
ANGLETON       PTCLDY    78  76  93 CALM      30.01S
BAY CITY       PTSUNNY   77  76  98 CALM      30.01R
$$

TEXAS COASTAL BEND, RIO GRANDE PLAINS DEEP SOUTH TEXAS

CITY           SKY/WX    TMP DP  RH WIND       PRES   REMARKS
VICTORIA       LGT RAIN  75  74  96 E5        30.00S
BEEVILLE       FAIR      69  69 100 CALM      30.00R FOG
ROCKPORT       CLEAR     80  76  87 SW3       29.98S
PORT ARANSAS   SUNNY     82  79  91 S3        29.98R
PORT LAVACA    RAIN      77  77  98 CALM      30.00S
CORPUS CHRISTI PTCLDY    78  76  93 SE6       29.98R
KINGSVILLE NAS CLEAR     74  74 100 E3        29.98R
COTULLA        PTCLDY    75  70  84 E5        30.00R
LAREDO         CLEAR     75  73  93 E6        29.98R
BROWNSVILLE    CLEAR     78  76  93 CALM      29.96S
PORT ISABEL    CLEAR     79  75  87 SE5       29.96S
HEBBRONVILLE   SUNNY     75  73  94 SE6       30.00R
MCALLEN        CLEAR     79  74  84 SE6       29.96S
WESLACO        PTCLDY    73  37  26 SE3       29.95S
FALFURRIAS     SUNNY     75  73  92 CALM      29.98R
EDINBURG       SUNNY     77  74  89 CALM      29.97R
$$



USA.gov is the U.S. government's official web portal to all federal, state and local government web resources and services.